contact:dominique.lefevre@mio.osupytheas.fr, maurice.libes@osupytheas.fr, didier.mallarino@osupytheas.fr
Project:EMSO http://www.emso-fr.org/EMSO-France
Depth: 2436.0 m
Title:EMSO Ligure Ouest : Data MII capteur CSTAR
DateTime,Latitude,Longitude,Instrument_Serial,Reference_Counts,Signal_Counts,Corrected_Signal_raw_counts,Calculated_Beam_c_inverse_meters,Internal_thermistor_counts
DateTime,Latitude,Longitude,Instrument_Serial,Reference_Counts,Signal_Counts,Corrected_Signal_raw_counts,Calculated_Beam_c_inverse_meters,Internal_thermistor_counts
2023-01-29T00:00:02,42.805,6.029,CST-1368DR,4403,4916,11866,01.098,551
2023-01-29T00:03:04,42.805,6.029,CST-1368DR,4402,4913,11860,01.100,551
2023-01-29T00:06:05,42.805,6.029,CST-1368DR,4403,4918,11871,01.097,551
2023-01-29T00:09:07,42.805,6.029,CST-1368DR,4403,4918,11869,01.097,551
2023-01-29T00:12:09,42.805,6.029,CST-1368DR,4403,4917,11868,01.098,551
2023-01-29T00:15:10,42.805,6.029,CST-1368DR,4403,4912,11855,01.102,551
2023-01-29T00:18:12,42.805,6.029,CST-1368DR,4402,4914,11863,01.099,551
2023-01-29T00:21:13,42.805,6.029,CST-1368DR,4403,4916,11865,01.099,551
2023-01-29T00:24:15,42.805,6.029,CST-1368DR,4403,4914,11861,01.100,551
2023-01-29T00:27:17,42.805,6.029,CST-1368DR,4402,4915,11865,01.099,551
2023-01-29T00:30:18,42.805,6.029,CST-1368DR,4403,4916,11865,01.099,551
2023-01-29T00:33:20,42.805,6.029,CST-1368DR,4403,4915,11863,01.099,551
2023-01-29T00:36:21,42.805,6.029,CST-1368DR,4403,4913,11858,01.101,551
2023-01-29T00:39:23,42.805,6.029,CST-1368DR,4402,4913,11860,01.100,551
2023-01-29T00:42:24,42.805,6.029,CST-1368DR,4403,4914,11861,01.100,551
2023-01-29T00:45:26,42.805,6.029,CST-1368DR,4403,4914,11861,01.100,551
2023-01-29T00:48:28,42.805,6.029,CST-1368DR,4403,4914,11859,01.101,551
2023-01-29T00:51:29,42.805,6.029,CST-1368DR,4403,4914,11861,01.100,551
2023-01-29T00:54:31,42.805,6.029,CST-1368DR,4403,4915,11862,01.100,551
2023-01-29T00:57:32,42.805,6.029,CST-1368DR,4403,4911,11854,01.103,551
2023-01-29T01:00:34,42.805,6.029,CST-1368DR,4403,4912,11856,01.102,551
2023-01-29T01:03:36,42.805,6.029,CST-1368DR,4403,4913,11858,01.101,551
2023-01-29T01:06:37,42.805,6.029,CST-1368DR,4403,4914,11860,01.100,551
2023-01-29T01:09:39,42.805,6.029,CST-1368DR,4403,4914,11861,01.100,551
2023-01-29T01:12:40,42.805,6.029,CST-1368DR,4403,4915,11863,01.099,551
2023-01-29T01:15:42,42.805,6.029,CST-1368DR,4403,4915,11862,01.100,551
2023-01-29T01:18:43,42.805,6.029,CST-1368DR,4402,4912,11858,01.101,551
2023-01-29T01:21:45,42.805,6.029,CST-1368DR,4403,4912,11856,01.102,551
2023-01-29T01:24:47,42.805,6.029,CST-1368DR,4403,4915,11862,01.100,551
2023-01-29T01:27:48,42.805,6.029,CST-1368DR,4403,4914,11859,01.101,551
2023-01-29T01:30:50,42.805,6.029,CST-1368DR,4403,4912,11856,01.102,551
2023-01-29T01:33:51,42.805,6.029,CST-1368DR,4403,4914,11861,01.100,551
2023-01-29T01:36:53,42.805,6.029,CST-1368DR,4403,4915,11862,01.100,551
2023-01-29T01:39:55,42.805,6.029,CST-1368DR,4402,4914,11864,01.099,551
2023-01-29T01:42:56,42.805,6.029,CST-1368DR,4403,4913,11858,01.101,551
2023-01-29T01:45:58,42.805,6.029,CST-1368DR,4403,4914,11861,01.100,551
2023-01-29T01:48:59,42.805,6.029,CST-1368DR,4402,4915,11865,01.099,551
2023-01-29T01:52:01,42.805,6.029,CST-1368DR,4402,4916,11867,01.098,551
2023-01-29T01:55:02,42.805,6.029,CST-1368DR,4402,4914,11863,01.099,551
2023-01-29T01:58:04,42.805,6.029,CST-1368DR,4402,4915,11866,01.098,551
2023-01-29T02:01:06,42.805,6.029,CST-1368DR,4402,4914,11862,01.100,551
2023-01-29T02:04:07,42.805,6.029,CST-1368DR,4403,4912,11856,01.102,551
2023-01-29T02:07:09,42.805,6.029,CST-1368DR,4403,4910,11850,01.104,551
2023-01-29T02:10:10,42.805,6.029,CST-1368DR,4402,4911,11857,01.102,551
2023-01-29T02:13:12,42.805,6.029,CST-1368DR,4402,4908,11849,01.104,551
2023-01-29T02:16:14,42.805,6.029,CST-1368DR,4403,4909,11847,01.105,551
2023-01-29T02:19:15,42.805,6.029,CST-1368DR,4402,4908,11849,01.104,551
2023-01-29T02:22:17,42.805,6.029,CST-1368DR,4402,4910,11854,01.103,551
2023-01-29T02:25:18,42.805,6.029,CST-1368DR,4402,4909,11850,01.104,551
2023-01-29T02:28:20,42.805,6.029,CST-1368DR,4402,4911,11856,01.102,551
2023-01-29T02:31:21,42.805,6.029,CST-1368DR,4402,4909,11852,01.103,551
2023-01-29T02:34:23,42.805,6.029,CST-1368DR,4402,4911,11856,01.102,551
2023-01-29T02:37:25,42.805,6.029,CST-1368DR,4402,4908,11848,01.105,551
2023-01-29T02:40:26,42.805,6.029,CST-1368DR,4402,4908,11848,01.105,551
2023-01-29T02:43:28,42.805,6.029,CST-1368DR,4402,4909,11852,01.103,551
2023-01-29T02:46:29,42.805,6.029,CST-1368DR,4402,4910,11852,01.103,551
2023-01-29T02:49:31,42.805,6.029,CST-1368DR,4402,4909,11851,01.104,551
2023-01-29T02:52:33,42.805,6.029,CST-1368DR,4402,4907,11846,01.105,551
2023-01-29T02:55:34,42.805,6.029,CST-1368DR,4402,4909,11850,01.104,551
2023-01-29T02:58:36,42.805,6.029,CST-1368DR,4402,4908,11849,01.104,551
2023-01-29T03:01:37,42.805,6.029,CST-1368DR,4402,4910,11854,01.103,551
2023-01-29T03:04:39,42.805,6.029,CST-1368DR,4402,4908,11849,01.104,551
2023-01-29T03:07:41,42.805,6.029,CST-1368DR,4402,4906,11844,01.106,551
2023-01-29T03:10:42,42.805,6.029,CST-1368DR,4402,4906,11844,01.106,551
2023-01-29T03:13:44,42.805,6.029,CST-1368DR,4402,4906,11843,01.106,551
2023-01-29T03:16:45,42.805,6.029,CST-1368DR,4402,4914,11862,01.100,551
2023-01-29T03:19:47,42.805,6.029,CST-1368DR,4402,4910,11852,01.103,551
2023-01-29T03:22:48,42.805,6.029,CST-1368DR,4402,4909,11851,01.104,551
2023-01-29T03:25:50,42.805,6.029,CST-1368DR,4402,4907,11846,01.105,551
2023-01-29T03:28:52,42.805,6.029,CST-1368DR,4402,4909,11850,01.104,551
2023-01-29T03:31:53,42.805,6.029,CST-1368DR,4402,4907,11846,01.105,551
2023-01-29T03:34:55,42.805,6.029,CST-1368DR,4402,4908,11847,01.105,551
2023-01-29T03:37:56,42.805,6.029,CST-1368DR,4402,4909,11850,01.104,551
2023-01-29T03:40:58,42.805,6.029,CST-1368DR,4402,4907,11846,01.105,551
2023-01-29T03:44:00,42.805,6.029,CST-1368DR,4402,4908,11849,01.104,551
2023-01-29T03:47:01,42.805,6.029,CST-1368DR,4402,4907,11846,01.105,551
2023-01-29T03:50:03,42.805,6.029,CST-1368DR,4402,4903,11835,01.109,551
2023-01-29T03:53:04,42.805,6.029,CST-1368DR,4402,4904,11838,01.108,551
2023-01-29T03:56:06,42.805,6.029,CST-1368DR,4402,4903,11835,01.109,551
2023-01-29T03:59:07,42.805,6.029,CST-1368DR,4402,4905,11842,01.107,551
2023-01-29T04:02:09,42.805,6.029,CST-1368DR,4402,4906,11844,01.106,551
2023-01-29T04:05:11,42.805,6.029,CST-1368DR,4402,4906,11844,01.106,551
2023-01-29T04:08:12,42.805,6.029,CST-1368DR,4402,4905,11841,01.107,551
2023-01-29T04:11:14,42.805,6.029,CST-1368DR,4402,4907,11846,01.105,551
2023-01-29T04:14:15,42.805,6.029,CST-1368DR,4402,4906,11843,01.106,551
2023-01-29T04:17:17,42.805,6.029,CST-1368DR,4402,4907,11846,01.105,551
2023-01-29T04:20:19,42.805,6.029,CST-1368DR,4402,4904,11839,01.108,551
2023-01-29T04:23:20,42.805,6.029,CST-1368DR,4402,4906,11843,01.106,551
2023-01-29T04:26:22,42.805,6.029,CST-1368DR,4402,4904,11839,01.108,551
2023-01-29T04:29:23,42.805,6.029,CST-1368DR,4402,4906,11844,01.106,551
2023-01-29T04:32:25,42.805,6.029,CST-1368DR,4402,4901,11831,01.110,551
2023-01-29T04:35:26,42.805,6.029,CST-1368DR,4402,4905,11841,01.107,551
2023-01-29T04:38:28,42.805,6.029,CST-1368DR,4402,4900,11828,01.111,551
2023-01-29T04:41:30,42.805,6.029,CST-1368DR,4402,4904,11838,01.108,551
2023-01-29T04:44:31,42.805,6.029,CST-1368DR,4402,4904,11840,01.107,551
2023-01-29T04:47:33,42.805,6.029,CST-1368DR,4402,4905,11840,01.107,551
2023-01-29T04:50:34,42.805,6.029,CST-1368DR,4402,4904,11840,01.107,551
2023-01-29T04:53:36,42.805,6.029,CST-1368DR,4402,4902,11835,01.109,551
2023-01-29T04:56:38,42.805,6.029,CST-1368DR,4402,4904,11838,01.108,551
2023-01-29T04:59:39,42.805,6.029,CST-1368DR,4402,4905,11841,01.107,551
2023-01-29T05:02:41,42.805,6.029,CST-1368DR,4402,4904,11840,01.107,551
2023-01-29T05:05:42,42.805,6.029,CST-1368DR,4402,4905,11840,01.107,551
2023-01-29T05:08:44,42.805,6.029,CST-1368DR,4402,4906,11843,01.106,551
2023-01-29T05:11:46,42.805,6.029,CST-1368DR,4402,4905,11840,01.107,551
2023-01-29T05:14:47,42.805,6.029,CST-1368DR,4402,4908,11849,01.104,551
2023-01-29T05:17:49,42.805,6.029,CST-1368DR,4402,4912,11857,01.102,551
2023-01-29T05:20:50,42.805,6.029,CST-1368DR,4402,4909,11852,01.103,551
2023-01-29T05:23:52,42.805,6.029,CST-1368DR,4402,4905,11840,01.107,551
2023-01-29T05:26:53,42.805,6.029,CST-1368DR,4402,4905,11841,01.107,551
2023-01-29T05:29:55,42.805,6.029,CST-1368DR,4402,4905,11841,01.107,551
2023-01-29T05:32:57,42.805,6.029,CST-1368DR,4402,4905,11841,01.107,551
2023-01-29T05:35:58,42.805,6.029,CST-1368DR,4402,4904,11839,01.108,551
2023-01-29T05:39:00,42.805,6.029,CST-1368DR,4402,4905,11841,01.107,551
2023-01-29T05:42:01,42.805,6.029,CST-1368DR,4402,4906,11843,01.106,551
2023-01-29T05:45:03,42.805,6.029,CST-1368DR,4402,4906,11843,01.106,551
2023-01-29T05:48:05,42.805,6.029,CST-1368DR,4402,4904,11840,01.107,551
2023-01-29T05:51:06,42.805,6.029,CST-1368DR,4402,4904,11838,01.108,551
2023-01-29T05:54:08,42.805,6.029,CST-1368DR,4402,4904,11838,01.108,551
2023-01-29T05:57:09,42.805,6.029,CST-1368DR,4402,4902,11833,01.110,551
2023-01-29T06:00:11,42.805,6.029,CST-1368DR,4402,4906,11843,01.106,551
2023-01-29T06:03:12,42.805,6.029,CST-1368DR,4402,4905,11841,01.107,551
2023-01-29T06:06:14,42.805,6.029,CST-1368DR,4402,4904,11839,01.108,551
2023-01-29T06:09:16,42.805,6.029,CST-1368DR,4402,4902,11833,01.110,551
2023-01-29T06:12:17,42.805,6.029,CST-1368DR,4402,4901,11831,01.110,551
2023-01-29T06:15:19,42.805,6.029,CST-1368DR,4402,4906,11844,01.106,551
2023-01-29T06:18:20,42.805,6.029,CST-1368DR,4402,4904,11840,01.107,551
2023-01-29T06:21:22,42.805,6.029,CST-1368DR,4402,4902,11835,01.109,551
2023-01-29T06:24:24,42.805,6.029,CST-1368DR,4402,4905,11840,01.107,551
2023-01-29T06:27:25,42.805,6.029,CST-1368DR,4402,4904,11840,01.107,551
2023-01-29T06:30:27,42.805,6.029,CST-1368DR,4402,4901,11832,01.110,551
2023-01-29T06:33:28,42.805,6.029,CST-1368DR,4402,4901,11831,01.110,551
2023-01-29T06:36:30,42.805,6.029,CST-1368DR,4402,4902,11833,01.110,551
2023-01-29T06:39:31,42.805,6.029,CST-1368DR,4402,4900,11829,01.111,551
2023-01-29T06:42:33,42.805,6.029,CST-1368DR,4402,4902,11834,01.109,551
2023-01-29T06:45:35,42.805,6.029,CST-1368DR,4402,4900,11829,01.111,551
2023-01-29T06:48:36,42.805,6.029,CST-1368DR,4402,4901,11831,01.110,551
2023-01-29T06:51:38,42.805,6.029,CST-1368DR,4402,4901,11832,01.110,551
2023-01-29T06:54:39,42.805,6.029,CST-1368DR,4402,4900,11830,01.111,551
2023-01-29T06:57:41,42.805,6.029,CST-1368DR,4402,4899,11827,01.112,551
2023-01-29T07:00:43,42.805,6.029,CST-1368DR,4402,4900,11828,01.111,551
2023-01-29T07:03:44,42.805,6.029,CST-1368DR,4402,4901,11832,01.110,551
2023-01-29T07:06:46,42.805,6.029,CST-1368DR,4402,4904,11838,01.108,551
2023-01-29T07:09:47,42.805,6.029,CST-1368DR,4402,4904,11838,01.108,551
2023-01-29T07:12:49,42.805,6.029,CST-1368DR,4402,4902,11834,01.109,551
2023-01-29T07:15:50,42.805,6.029,CST-1368DR,4402,4904,11838,01.108,551
2023-01-29T07:18:52,42.805,6.029,CST-1368DR,4402,4903,11836,01.109,551
2023-01-29T07:21:54,42.805,6.029,CST-1368DR,4402,4899,11826,01.112,551
2023-01-29T07:24:55,42.805,6.029,CST-1368DR,4402,4900,11828,01.111,551
2023-01-29T07:27:57,42.805,6.029,CST-1368DR,4402,4901,11831,01.110,551
2023-01-29T07:30:58,42.805,6.029,CST-1368DR,4402,4901,11832,01.110,551
2023-01-29T07:34:00,42.805,6.029,CST-1368DR,4402,4899,11828,01.111,551
2023-01-29T07:37:02,42.805,6.029,CST-1368DR,4402,4901,11831,01.110,551
2023-01-29T07:40:03,42.805,6.029,CST-1368DR,4402,4900,11828,01.111,551
2023-01-29T07:43:05,42.805,6.029,CST-1368DR,4402,4899,11826,01.112,551
2023-01-29T07:46:06,42.805,6.029,CST-1368DR,4402,4899,11827,01.112,551
2023-01-29T07:49:08,42.805,6.029,CST-1368DR,4402,4899,11826,01.112,551
2023-01-29T07:52:10,42.805,6.029,CST-1368DR,4402,4900,11828,01.111,551
2023-01-29T07:55:11,42.805,6.029,CST-1368DR,4402,4901,11831,01.110,551
2023-01-29T07:58:13,42.805,6.029,CST-1368DR,4402,4900,11830,01.111,551
2023-01-29T08:01:14,42.805,6.029,CST-1368DR,4402,4899,11827,01.112,551
2023-01-29T08:04:16,42.805,6.029,CST-1368DR,4402,4902,11833,01.110,551
2023-01-29T08:07:17,42.805,6.029,CST-1368DR,4402,4898,11825,01.112,551
2023-01-29T08:10:19,42.805,6.029,CST-1368DR,4402,4901,11831,01.110,551
2023-01-29T08:13:21,42.805,6.029,CST-1368DR,4402,4898,11825,01.112,551
2023-01-29T08:16:22,42.805,6.029,CST-1368DR,4402,4902,11834,01.109,551
2023-01-29T08:19:24,42.805,6.029,CST-1368DR,4402,4900,11829,01.111,551
2023-01-29T08:22:25,42.805,6.029,CST-1368DR,4402,4904,11838,01.108,551
2023-01-29T08:25:27,42.805,6.029,CST-1368DR,4402,4902,11835,01.109,551
2023-01-29T08:28:28,42.805,6.029,CST-1368DR,4402,4901,11832,01.110,551
2023-01-29T08:31:30,42.805,6.029,CST-1368DR,4402,4901,11832,01.110,551
2023-01-29T08:34:32,42.805,6.029,CST-1368DR,4402,4899,11826,01.112,551
2023-01-29T08:37:33,42.805,6.029,CST-1368DR,4402,4899,11826,01.112,551
2023-01-29T08:40:35,42.805,6.029,CST-1368DR,4402,4900,11830,01.111,551
2023-01-29T08:43:36,42.805,6.029,CST-1368DR,4402,4899,11826,01.112,551
2023-01-29T08:46:38,42.805,6.029,CST-1368DR,4402,4901,11832,01.110,551
2023-01-29T08:49:40,42.805,6.029,CST-1368DR,4402,4900,11829,01.111,551
2023-01-29T08:52:41,42.805,6.029,CST-1368DR,4402,4899,11827,01.112,551
2023-01-29T08:55:43,42.805,6.029,CST-1368DR,4402,4900,11829,01.111,551
2023-01-29T08:58:44,42.805,6.029,CST-1368DR,4402,4899,11827,01.112,551
2023-01-29T09:01:46,42.805,6.029,CST-1368DR,4402,4899,11826,01.112,551
2023-01-29T09:04:48,42.805,6.029,CST-1368DR,4402,4899,11826,01.112,551
2023-01-29T09:07:49,42.805,6.029,CST-1368DR,4402,4899,11827,01.112,551
2023-01-29T09:10:51,42.805,6.029,CST-1368DR,4402,4899,11826,01.112,551
2023-01-29T09:13:52,42.805,6.029,CST-1368DR,4402,4899,11827,01.112,551
2023-01-29T09:16:54,42.805,6.029,CST-1368DR,4402,4899,11828,01.111,551
2023-01-29T09:19:55,42.805,6.029,CST-1368DR,4402,4899,11826,01.112,551
2023-01-29T09:22:57,42.805,6.029,CST-1368DR,4402,4899,11828,01.111,551
2023-01-29T09:25:59,42.805,6.029,CST-1368DR,4402,4897,11822,01.113,551
2023-01-29T09:29:00,42.805,6.029,CST-1368DR,4402,4899,11826,01.112,551
2023-01-29T09:32:02,42.805,6.029,CST-1368DR,4402,4897,11822,01.113,551
2023-01-29T09:35:03,42.805,6.029,CST-1368DR,4402,4897,11823,01.113,551
2023-01-29T09:38:05,42.805,6.029,CST-1368DR,4402,4898,11825,01.112,551
2023-01-29T09:41:07,42.805,6.029,CST-1368DR,4402,4896,11818,01.115,551
2023-01-29T09:44:08,42.805,6.029,CST-1368DR,4402,4895,11817,01.115,551
2023-01-29T09:47:10,42.805,6.029,CST-1368DR,4402,4894,11815,01.116,551
2023-01-29T09:50:11,42.805,6.029,CST-1368DR,4402,4895,11817,01.115,551
2023-01-29T09:53:13,42.805,6.029,CST-1368DR,4402,4896,11820,01.114,551
2023-01-29T09:56:14,42.805,6.029,CST-1368DR,4402,4895,11817,01.115,551
2023-01-29T09:59:16,42.805,6.029,CST-1368DR,4402,4898,11824,01.113,551
2023-01-29T10:02:18,42.805,6.029,CST-1368DR,4402,4895,11816,01.115,551
2023-01-29T10:05:19,42.805,6.029,CST-1368DR,4402,4895,11817,01.115,551
2023-01-29T10:08:21,42.805,6.029,CST-1368DR,4402,4897,11822,01.113,551
2023-01-29T10:11:22,42.805,6.029,CST-1368DR,4402,4896,11818,01.115,551
2023-01-29T10:14:24,42.805,6.029,CST-1368DR,4402,4896,11819,01.114,551
2023-01-29T10:17:26,42.805,6.029,CST-1368DR,4402,4895,11816,01.115,551
2023-01-29T10:20:27,42.805,6.029,CST-1368DR,4402,4898,11824,01.113,551
2023-01-29T10:23:29,42.805,6.029,CST-1368DR,4402,4897,11822,01.113,551
2023-01-29T10:26:30,42.805,6.029,CST-1368DR,4402,4896,11818,01.115,551
2023-01-29T10:29:32,42.805,6.029,CST-1368DR,4402,4895,11818,01.115,551
2023-01-29T10:32:33,42.805,6.029,CST-1368DR,4402,4898,11825,01.112,551
2023-01-29T10:35:35,42.805,6.029,CST-1368DR,4402,4894,11815,01.116,551
2023-01-29T10:38:37,42.805,6.029,CST-1368DR,4402,4898,11824,01.113,551
2023-01-29T10:41:38,42.805,6.029,CST-1368DR,4402,4896,11818,01.115,551
2023-01-29T10:44:40,42.805,6.029,CST-1368DR,4402,4896,11820,01.114,551
2023-01-29T10:47:41,42.805,6.029,CST-1368DR,4402,4898,11823,01.113,551
2023-01-29T10:50:43,42.805,6.029,CST-1368DR,4402,4899,11828,01.111,551
2023-01-29T10:53:45,42.805,6.029,CST-1368DR,4402,4896,11819,01.114,551
2023-01-29T10:56:46,42.805,6.029,CST-1368DR,4402,4896,11820,01.114,551
2023-01-29T10:59:48,42.805,6.029,CST-1368DR,4402,4897,11822,01.113,551
2023-01-29T11:02:49,42.805,6.029,CST-1368DR,4402,4898,11825,01.112,551
2023-01-29T11:05:51,42.805,6.029,CST-1368DR,4402,4897,11822,01.113,551
2023-01-29T11:08:52,42.805,6.029,CST-1368DR,4402,4902,11835,01.109,551
2023-01-29T11:11:54,42.805,6.029,CST-1368DR,4402,4897,11823,01.113,551
2023-01-29T11:14:56,42.805,6.029,CST-1368DR,4402,4896,11819,01.114,551
2023-01-29T11:17:57,42.805,6.029,CST-1368DR,4402,4895,11816,01.115,551
2023-01-29T11:20:59,42.805,6.029,CST-1368DR,4402,4897,11822,01.113,551
2023-01-29T11:24:00,42.805,6.029,CST-1368DR,4402,4897,11822,01.113,551
2023-01-29T11:27:02,42.805,6.029,CST-1368DR,4402,4898,11824,01.113,551
2023-01-29T11:30:04,42.805,6.029,CST-1368DR,4402,4895,11818,01.115,551
2023-01-29T11:33:05,42.805,6.029,CST-1368DR,4402,4896,11820,01.114,551
2023-01-29T11:36:07,42.805,6.029,CST-1368DR,4402,4896,11818,01.115,551
2023-01-29T11:39:08,42.805,6.029,CST-1368DR,4402,4895,11816,01.115,551
2023-01-29T11:42:10,42.805,6.029,CST-1368DR,4402,4895,11817,01.115,551
2023-01-29T11:45:11,42.805,6.029,CST-1368DR,4402,4893,11812,01.117,551
2023-01-29T11:48:13,42.805,6.029,CST-1368DR,4402,4895,11816,01.115,551
2023-01-29T11:51:15,42.805,6.029,CST-1368DR,4402,4895,11817,01.115,551
2023-01-29T11:54:16,42.805,6.029,CST-1368DR,4402,4895,11816,01.115,551
2023-01-29T11:57:18,42.805,6.029,CST-1368DR,4402,4898,11823,01.113,551
2023-01-29T12:00:19,42.805,6.029,CST-1368DR,4402,4894,11814,01.116,551
2023-01-29T12:03:21,42.805,6.029,CST-1368DR,4402,4894,11815,01.116,551
2023-01-29T12:06:23,42.805,6.029,CST-1368DR,4402,4894,11815,01.116,551
2023-01-29T12:09:24,42.805,6.029,CST-1368DR,4402,4894,11814,01.116,551
2023-01-29T12:12:26,42.805,6.029,CST-1368DR,4402,4894,11815,01.116,551
2023-01-29T12:15:27,42.805,6.029,CST-1368DR,4402,4895,11816,01.115,551
2023-01-29T12:18:29,42.805,6.029,CST-1368DR,4402,4896,11819,01.114,551
2023-01-29T12:21:30,42.805,6.029,CST-1368DR,4402,4894,11815,01.116,551
2023-01-29T12:24:32,42.805,6.029,CST-1368DR,4402,4895,11818,01.115,551
2023-01-29T12:27:34,42.805,6.029,CST-1368DR,4402,4894,11815,01.116,551
2023-01-29T12:30:35,42.805,6.029,CST-1368DR,4402,4894,11815,01.116,551
2023-01-29T12:33:37,42.805,6.029,CST-1368DR,4402,4894,11815,01.116,551
2023-01-29T12:36:38,42.805,6.029,CST-1368DR,4402,4896,11818,01.115,551
2023-01-29T12:39:40,42.805,6.029,CST-1368DR,4402,4898,11824,01.113,551
2023-01-29T12:42:42,42.805,6.029,CST-1368DR,4402,4895,11816,01.115,551
2023-01-29T12:45:43,42.805,6.029,CST-1368DR,4402,4895,11817,01.115,551
2023-01-29T12:48:45,42.805,6.029,CST-1368DR,4402,4896,11818,01.115,551
2023-01-29T12:51:46,42.805,6.029,CST-1368DR,4402,4894,11815,01.116,551
2023-01-29T12:54:48,42.805,6.029,CST-1368DR,4402,4895,11816,01.115,551
2023-01-29T12:57:49,42.805,6.029,CST-1368DR,4402,4895,11818,01.115,551
2023-01-29T13:00:51,42.805,6.029,CST-1368DR,4402,4895,11818,01.115,551
2023-01-29T13:03:53,42.805,6.029,CST-1368DR,4402,4894,11814,01.116,551
2023-01-29T13:06:54,42.805,6.029,CST-1368DR,4402,4895,11818,01.115,551
2023-01-29T13:09:56,42.805,6.029,CST-1368DR,4402,4895,11816,01.115,551
2023-01-29T13:12:57,42.805,6.029,CST-1368DR,4402,4894,11814,01.116,551
2023-01-29T13:15:59,42.805,6.029,CST-1368DR,4402,4894,11814,01.116,551
2023-01-29T13:19:01,42.805,6.029,CST-1368DR,4402,4894,11815,01.116,551
2023-01-29T13:22:02,42.805,6.029,CST-1368DR,4402,4894,11814,01.116,551
2023-01-29T13:25:04,42.805,6.029,CST-1368DR,4402,4899,11826,01.112,551
2023-01-29T13:28:05,42.805,6.029,CST-1368DR,4402,4895,11816,01.115,551
2023-01-29T13:31:07,42.805,6.029,CST-1368DR,4402,4895,11818,01.115,551
2023-01-29T13:34:09,42.805,6.029,CST-1368DR,4402,4899,11826,01.112,551
2023-01-29T13:37:10,42.805,6.029,CST-1368DR,4402,4895,11818,01.115,551
2023-01-29T13:40:12,42.805,6.029,CST-1368DR,4402,4896,11820,01.114,551
2023-01-29T13:43:13,42.805,6.029,CST-1368DR,4402,4896,11820,01.114,551
2023-01-29T13:46:15,42.805,6.029,CST-1368DR,4402,4896,11818,01.115,551
2023-01-29T13:49:16,42.805,6.029,CST-1368DR,4402,4894,11815,01.116,551
2023-01-29T13:52:18,42.805,6.029,CST-1368DR,4402,4895,11818,01.115,551
2023-01-29T13:55:20,42.805,6.029,CST-1368DR,4402,4897,11822,01.113,551
2023-01-29T13:58:21,42.805,6.029,CST-1368DR,4402,4897,11823,01.113,551
2023-01-29T14:01:23,42.805,6.029,CST-1368DR,4402,4895,11818,01.115,551
2023-01-29T14:04:24,42.805,6.029,CST-1368DR,4402,4894,11815,01.116,551
2023-01-29T14:07:26,42.805,6.029,CST-1368DR,4402,4896,11819,01.114,551
2023-01-29T14:10:28,42.805,6.029,CST-1368DR,4402,4896,11820,01.114,551
2023-01-29T14:13:29,42.805,6.029,CST-1368DR,4402,4895,11817,01.115,551
2023-01-29T14:16:31,42.805,6.029,CST-1368DR,4402,4894,11815,01.116,551
2023-01-29T14:19:32,42.805,6.029,CST-1368DR,4402,4894,11814,01.116,551
2023-01-29T14:22:34,42.805,6.029,CST-1368DR,4402,4901,11831,01.110,551
2023-01-29T14:25:35,42.805,6.029,CST-1368DR,4402,4895,11817,01.115,551
2023-01-29T14:28:37,42.805,6.029,CST-1368DR,4402,4896,11820,01.114,551
2023-01-29T14:31:39,42.805,6.029,CST-1368DR,4402,4893,11811,01.117,551
2023-01-29T14:34:40,42.805,6.029,CST-1368DR,4402,4897,11822,01.113,551
2023-01-29T14:37:42,42.805,6.029,CST-1368DR,4402,4894,11815,01.116,551
2023-01-29T14:40:43,42.805,6.029,CST-1368DR,4402,4895,11816,01.115,551
2023-01-29T14:43:45,42.805,6.029,CST-1368DR,4402,4895,11816,01.115,551
2023-01-29T14:46:47,42.805,6.029,CST-1368DR,4402,4888,11800,01.121,551
2023-01-29T14:49:48,42.805,6.029,CST-1368DR,4402,4888,11799,01.121,551
2023-01-29T14:52:50,42.805,6.029,CST-1368DR,4402,4887,11798,01.121,551
2023-01-29T14:55:51,42.805,6.029,CST-1368DR,4402,4888,11799,01.121,551
2023-01-29T14:58:53,42.805,6.029,CST-1368DR,4402,4887,11797,01.122,551
2023-01-29T15:01:54,42.805,6.029,CST-1368DR,4402,4889,11803,01.120,551
2023-01-29T15:04:56,42.805,6.029,CST-1368DR,4402,4888,11800,01.121,551
2023-01-29T15:07:58,42.805,6.029,CST-1368DR,4402,4887,11797,01.122,551
2023-01-29T15:10:59,42.805,6.029,CST-1368DR,4402,4886,11796,01.122,551
2023-01-29T15:14:01,42.805,6.029,CST-1368DR,4402,4888,11800,01.121,551
2023-01-29T15:17:02,42.805,6.029,CST-1368DR,4402,4888,11800,01.121,551
2023-01-29T15:20:04,42.805,6.029,CST-1368DR,4402,4887,11797,01.122,551
2023-01-29T15:23:06,42.805,6.029,CST-1368DR,4402,4887,11797,01.122,551
2023-01-29T15:26:07,42.805,6.029,CST-1368DR,4402,4886,11796,01.122,551
2023-01-29T15:29:09,42.805,6.029,CST-1368DR,4401,4888,11802,01.120,551
2023-01-29T15:32:10,42.805,6.029,CST-1368DR,4402,4889,11803,01.120,551
2023-01-29T15:35:12,42.805,6.029,CST-1368DR,4402,4889,11803,01.120,551
2023-01-29T15:38:13,42.805,6.029,CST-1368DR,4402,4890,11804,01.119,551
2023-01-29T15:41:15,42.805,6.029,CST-1368DR,4402,4889,11803,01.120,551
2023-01-29T15:44:17,42.805,6.029,CST-1368DR,4402,4888,11800,01.121,551
2023-01-29T15:47:18,42.805,6.029,CST-1368DR,4402,4890,11806,01.119,551
2023-01-29T15:50:20,42.805,6.029,CST-1368DR,4402,4887,11797,01.122,551
2023-01-29T15:53:21,42.805,6.029,CST-1368DR,4402,4887,11798,01.121,551
2023-01-29T15:56:23,42.805,6.029,CST-1368DR,4402,4889,11803,01.120,551
2023-01-29T15:59:25,42.805,6.029,CST-1368DR,4402,4889,11802,01.120,551
2023-01-29T16:02:26,42.805,6.029,CST-1368DR,4402,4887,11798,01.121,551
2023-01-29T16:05:28,42.805,6.029,CST-1368DR,4402,4894,11814,01.116,551
2023-01-29T16:08:29,42.805,6.029,CST-1368DR,4401,4888,11803,01.120,551
2023-01-29T16:11:31,42.805,6.029,CST-1368DR,4402,4888,11800,01.121,551
2023-01-29T16:14:32,42.805,6.029,CST-1368DR,4401,4889,11805,01.119,551
2023-01-29T16:17:34,42.805,6.029,CST-1368DR,4402,4888,11800,01.121,551
2023-01-29T16:20:36,42.805,6.029,CST-1368DR,4402,4891,11806,01.119,551
2023-01-29T16:23:37,42.805,6.029,CST-1368DR,4401,4889,11804,01.119,551
2023-01-29T16:26:39,42.805,6.029,CST-1368DR,4401,4888,11802,01.120,551
2023-01-29T16:29:40,42.805,6.029,CST-1368DR,4402,4887,11798,01.121,551
2023-01-29T16:32:42,42.805,6.029,CST-1368DR,4402,4887,11798,01.121,551
2023-01-29T16:35:44,42.805,6.029,CST-1368DR,4401,4888,11802,01.120,551